Location: D�derode
(51.8092°N, 10.1065°E)
Time: 21:32:29
(UTC+00:00)

SL-16 R/B - Pass Details

Date: 01 December 2020
Orbit: 841 x 849 km, 71.0° (Epoch: 24 January)

Event Time Altitude Azimuth Distance (km) Brightness Sun altitude
Rises 18:37:27 0° 257° (WSW) 3,395 6.4 -30.7°
Reaches altitude 10° 18:40:25 10° 272° (W) 2,463 5.5 -31.1°
Maximum altitude 18:44:51 23° 324° (NW) 1,722 4.1 -31.8°
Enters shadow 18:46:42 20° 351° (N) 1,876 4.1 -32.1°
